Погода в Россоши

Россия / Белгородская область     50°16′11″N   38°26′21″E
темп.,
°C
ветер,
м/с
пор.,
м/с
влажн.,
%
обл.,
%
осадки,
мм/ч
давл.,
гПа
погр.,
м
16 апреля, пт
пт1600:00+8ю22895 0.0 101516
03:00+7ю37904 0.0 1015159
06:00+6ююв37915 0.0 1016155
09:00+10ю566811 0.0 1017946
12:00+14ю674863 0.1 10171991
15:00+15ююз6740100 0.1 10162221
18:00+12юз455423 0.0 10171026
21:00+9ююв116587 0.0 101710
17 апреля, сб
сб1700:00+8юв226499 0.0 101812
03:00+9ююз1170100 0.1 101825
06:00+7ююв1285100 0.6 101852
09:00+10юз556911 0.8 1018816
12:00+12юз56465 0.1 10181773
15:00+11юз775024 0.1 10191430
18:00+10юз565681 0.0 10201390
21:00+8юз3668100 0.0 1021639
18 апреля, вс
вс1800:00+8юз4868100 0.1 1021719
03:00+7юз3773100 0.1 1021453
06:00+7юз2578100 0.0 1021367
09:00+9ю346738 0.0 1021810
12:00+13ююз455082 0.2 10201691
15:00+13ююз2349100 0.3 10201358
18:00+13в2354100 0.0 1019101
21:00+11в4858100 0.0 1020228
19 апреля, пн
пн1900:00+9вюв41065100 0.0 1019251
03:00+9вюв41063100 0.0 1019268
06:00+9вюв41070100 0.0 1019346
09:00+10юв61067100 0.1 10181140
12:00+9в71081100 0.8 10171056
15:00+9в81384100 1.3 1016718
18:00+9в61190100 1.1 1014557
21:00+9в61292100 1.4 1012486
20 апреля, вт
вт2000:00+10в61398100 3.4 1009491
03:00+11вюв81697100 17.1 1005798
06:00+11вюв101995100 7.8 1003905
09:00+12вюв112088100 15.8 10011229
12:00+13ююв101884100 1.1 9991174
15:00+17ююв11156815 2.9 9991627
18:00+14ю10176897 0.1 10001714
21:00+9ю9157866 0.2 1002906